Powrót do katalogu

CZ-6A DEB

AktywnyPO
NORAD 60686·DEBRIS·🇨🇳 China

Wystrzelony Aug 6, 2024 z Taiyuan Satellite Launch Center

Loading…

Następne Przeloty (najbliższe 24 godziny)

TLE

ŚwieżeSource: Space-Track

Epoka: Sep 14, 2026, 10:41 UTC

1 60686U 24140CP  26257.44551789  .00001444  00000-0  43305-3 0  9993
2 60686  88.9786 260.0893 0048048 306.0500  53.6255 14.41681151110246

Śledź CZ-6A DEB w czasie rzeczywistym z AllMySat

Download on the App Store